sat.trackr.live / text

‹ back to catalog

KAZSTSAT

NORAD 43783 · 2018-099AB

PAYLOAD ACTIVE UNKNOWN

§ Identity

Operator
Country
KAZ
Launch date
2018-12-03
Launch site
AFWTR
Launch vehicle
Mass (kg)
RCS (m²)

Purposes: earth_obs

External: N2YO · Heavens-Above · Gunter

§ Orbital elements

Epoch: 2026-05-25T01:55:55.816896Z

Period
96.01 min
Inclination
97.4277°
Eccentricity
0.0006372
Mean motion
14.99801738 rev/d
Perigee alt
563.1 km
Apogee alt
571.9 km
Semi-major
6,945.6 km
B*
6.3678e-5
RAAN
178.0612°
Arg perigee
130.4440°
Mean anomaly
229.7340°
Rev number
40,784

§ Raw data

KAZSTSAT1 43783U 18099AB  26145.08050714  .00000732  00000+0  63678-4 0  99902 43783  97.4277 178.0612 0006372 130.4440 229.7340 14.99801738407842

JSON: /api/v1/satellites/43783 · /tle

For live sub-satellite position, see the globe view (requires WebGL).

§ Visibility from observer

Set your observer location to see the next 7 days of passes ≥ 10°. The values pass through the URL so the page stays shareable.

No JS? Fill the form by hand. The geolocation button needs JavaScript.

§ Radio — SatNOGS DB

ModeDescriptionDownlinkUplink
FM S-band telemetry 2.227 GHz

1 transmitter · refreshed weekly from db.satnogs.org